This is the latest recevied weather packets stored in our database for station/object W1REE. If no packets are shown the sender has not sent any weather packets the latest 10 day(s).
| Time | Temp. | Humidity | Pressure | Rain* | Wind** | Luminosity | Snow |
|---|---|---|---|---|---|---|---|
| 1778115849 | 2.78° C | 74% | 1020.6 hPa | 0 mm | - | 30 W/m² | - |
| 1778115547 | 3.33° C | 72% | 1020.7 hPa | 0 mm | - | 32 W/m² | - |
| 1778115243 | 3.89° C | 71% | 1020.6 hPa | 0 mm | - | 33 W/m² | - |
| 1778114940 | 4.44° C | 67% | 1020.6 hPa | 0 mm | - | 35 W/m² | - |
| 1778114637 | 4.44° C | 69% | 1020.6 hPa | 0 mm | - | 42 W/m² | - |
| 1778114334 | 4.44° C | 70% | 1020.5 hPa | 0 mm | - | 48 W/m² | - |
| 1778114030 | 4.44° C | 70% | 1020.8 hPa | 0 mm | - | 71 W/m² | - |
| 1778113725 | 4.44° C | 70% | 1020.5 hPa | 0 mm | - | 63 W/m² | - |
| 1778113421 | 4.44° C | 69% | 1020.6 hPa | 0 mm | - | 58 W/m² | - |
| 1778113119 | 4.44° C | 67% | 1020.6 hPa | 0 mm | - | 54 W/m² | - |
| 1778112815 | 5° C | 66% | 1020.4 hPa | 0 mm | - | 46 W/m² | - |
| 1778112512 | 5.56° C | 63% | 1020.5 hPa | 0 mm | - | 51 W/m² | - |
| 1778112207 | 6.11° C | 60% | 1020.6 hPa | 0 mm | - | 103 W/m² | - |
| 1778111904 | 5.56° C | 64% | 1020.6 hPa | 0 mm | - | 70 W/m² | - |
| 1778111601 | 5.56° C | 60% | 1020.8 hPa | 0 mm | - | 208 W/m² | - |
| 1778111297 | 5.56° C | 65% | 1020.7 hPa | 0 mm | - | 306 W/m² | - |
| 1778110995 | 5.56° C | 67% | 1020.7 hPa | 0 mm | - | 284 W/m² | - |
| 1778110692 | 5° C | 67% | 1020.8 hPa | 0 mm | - | 267 W/m² | - |
| 1778110388 | 5° C | 65% | 1020.7 hPa | 0 mm | - | 196 W/m² | - |
| 1778110085 | 5.56° C | 66% | 1020.7 hPa | 0 mm | - | 190 W/m² | - |
| 1778109780 | 5° C | 61% | 1020.7 hPa | 0 mm | - | 196 W/m² | - |
| 1778109477 | 5° C | 62% | 1020.8 hPa | 0 mm | - | 199 W/m² | - |
| 1778109175 | 5° C | 61% | 1020.6 hPa | 0 mm | - | 415 W/m² | - |
| 1778108873 | 5° C | 60% | 1020.7 hPa | 0 mm | - | 295 W/m² | - |
| 1778108569 | 4.44° C | 63% | 1020.7 hPa | 0 mm | - | 234 W/m² | - |
* Rain latest hour (hover to see other rain measurements)
** Current wind speed in m/s (hover to see current wind gust speed)